CSA689 LEBL-LKPR

Flight info

Callsign CSA689
Flight time N/A
Altitude 36000
Route AGENA DCT BODEQ DCT LUMAS DCT SECON DCT ADITA DCT STP DCT RAPED DCT PIGOS DCT EKSID DCT NOSTA DCT NOPMU DCT DEVOX DCT NESTI DCT TAGIP DCT BRENO DCT TULSI DCT MEBEK DCT NENUM Z39 DOLUP DCT APRAQ
Aircraft A339/H-SDE2E3FGHIJ1RWXY/LB1

Departure

Time N/A
Airport Josep Tarradellas Barcelona-El Prat Airport (LEBL)

Arrival

Time 2026-05-07 21:00
Airport Václav Havel Airport Prague (LKPR)
Time Latitude Longitude Altitude Speed Heading
2026-05-07 19:14 41.50017 3.22004 25310 ft 446 kts 84°
2026-05-07 19:14 41.50617 3.26090 25886 ft 451 kts 81°
2026-05-07 19:14 41.51318 3.30223 26450 ft 456 kts 80°
2026-05-07 19:14 41.52031 3.34340 26993 ft 460 kts 80°
2026-05-07 19:15 41.52745 3.38517 27526 ft 464 kts 81°
2026-05-07 19:15 41.53456 3.42733 28009 ft 469 kts 81°
2026-05-07 19:15 41.54161 3.46979 28495 ft 473 kts 81°
2026-05-07 19:15 41.54870 3.51272 28963 ft 477 kts 81°
2026-05-07 19:16 41.55579 3.55574 29416 ft 481 kts 82°
2026-05-07 19:16 41.56298 3.59952 29886 ft 485 kts 82°
2026-05-07 19:16 41.57011 3.64312 30300 ft 488 kts 82°
2026-05-07 19:16 41.57739 3.68753 30601 ft 491 kts 83°
2026-05-07 19:17 41.58466 3.73216 30906 ft 494 kts 82°
2026-05-07 19:17 41.59195 3.77705 31306 ft 494 kts 82°
2026-05-07 19:17 41.59914 3.82123 31737 ft 494 kts 83°
2026-05-07 19:17 41.60641 3.86611 32197 ft 493 kts 83°
2026-05-07 19:18 41.61363 3.91067 32642 ft 492 kts 83°
2026-05-07 19:18 41.62084 3.95532 33048 ft 492 kts 83°
2026-05-07 19:18 41.62799 3.99980 33452 ft 491 kts 83°
2026-05-07 19:18 41.63513 4.04424 33862 ft 491 kts 83°
2026-05-07 19:19 41.64216 4.08816 34246 ft 491 kts 84°
2026-05-07 19:19 41.64930 4.13290 34562 ft 492 kts 83°
2026-05-07 19:19 41.65639 4.17755 34795 ft 494 kts 83°
2026-05-07 19:19 41.66350 4.22248 34996 ft 495 kts 83°
2026-05-07 19:20 41.67054 4.26708 35227 ft 496 kts 83°
2026-05-07 19:20 41.67770 4.31229 35458 ft 497 kts 83°
2026-05-07 19:20 41.68481 4.35734 35660 ft 499 kts 83°
2026-05-07 19:20 41.69199 4.40284 35862 ft 500 kts 83°
2026-05-07 19:21 41.69906 4.44794 35969 ft 502 kts 82°
2026-05-07 19:21 41.70628 4.49418 35975 ft 506 kts 82°
2026-05-07 19:21 41.72888 4.58362 35977 ft 517 kts 63°
2026-05-07 19:22 41.74859 4.62371 35981 ft 522 kts 52°
2026-05-07 19:22 41.77361 4.65898 35983 ft 523 kts 41°
2026-05-07 19:22 41.80280 4.68769 35980 ft 523 kts 30°
2026-05-07 19:22 41.83558 4.70920 35984 ft 521 kts 19°
2026-05-07 19:23 41.90459 4.73699 35985 ft 519 kts 13°
2026-05-07 19:23 41.97415 4.76284 35983 ft 519 kts 13°
2026-05-07 19:24 42.04356 4.78962 35983 ft 520 kts 14°
2026-05-07 19:24 42.11243 4.81673 35984 ft 520 kts 14°
2026-05-07 19:25 42.18174 4.84422 35980 ft 518 kts 14°
2026-05-07 19:25 42.25080 4.87171 35985 ft 518 kts 14°
2026-05-07 19:26 42.31988 4.89926 35983 ft 518 kts 14°
2026-05-07 19:26 42.38887 4.92680 35984 ft 517 kts 14°
2026-05-07 19:27 42.45799 4.95450 35985 ft 517 kts 14°
2026-05-07 19:27 42.52659 4.98198 35984 ft 518 kts 14°
2026-05-07 19:28 42.59573 5.00981 35989 ft 518 kts 13°
2026-05-07 19:28 42.66453 5.03751 35982 ft 517 kts 13°
2026-05-07 19:29 42.73324 5.06534 35986 ft 518 kts 15°
2026-05-07 19:29 42.79953 5.10497 35981 ft 522 kts 29°
2026-05-07 19:30 42.85768 5.16379 35987 ft 524 kts 43°
2026-05-07 19:30 42.90500 5.23789 35987 ft 523 kts 54°
2026-05-07 19:31 42.94846 5.31791 35985 ft 523 kts 54°
2026-05-07 19:31 42.99166 5.39724 35979 ft 523 kts 53°
2026-05-07 19:32 43.03515 5.47624 35977 ft 524 kts 53°
2026-05-07 19:32 43.07902 5.55585 35976 ft 524 kts 53°
2026-05-07 19:33 43.12262 5.63524 35977 ft 524 kts 53°
2026-05-07 19:33 43.16611 5.71460 35979 ft 524 kts 54°
2026-05-07 19:34 43.20260 5.80069 35983 ft 522 kts 69°
2026-05-07 19:34 43.22316 5.89440 35989 ft 516 kts 84°
2026-05-07 19:35 43.22793 5.99149 35990 ft 508 kts 95°
2026-05-07 19:35 43.22629 6.08769 35986 ft 509 kts 96°
2026-05-07 19:36 43.22476 6.18448 35988 ft 508 kts 96°
2026-05-07 19:36 43.22357 6.28090 35988 ft 509 kts 95°
2026-05-07 19:37 43.22241 6.37753 35990 ft 510 kts 95°
2026-05-07 19:37 43.22140 6.47494 35995 ft 511 kts 92°
2026-05-07 19:38 43.23044 6.57149 35995 ft 519 kts 78°
2026-05-07 19:38 43.25538 6.66413 35987 ft 523 kts 65°
2026-05-07 19:39 43.29455 6.74794 35989 ft 525 kts 54°
2026-05-07 19:39 43.33855 6.82830 35987 ft 526 kts 53°
2026-05-07 19:40 43.38151 6.90876 35993 ft 527 kts 54°
2026-05-07 19:40 43.42421 6.99030 35990 ft 527 kts 54°
2026-05-07 19:41 43.46690 7.07220 35992 ft 527 kts 54°
2026-05-07 19:41 43.50948 7.15391 35994 ft 527 kts 54°
2026-05-07 19:42 43.55196 7.23558 35997 ft 526 kts 54°
2026-05-07 19:42 43.59435 7.31735 35996 ft 526 kts 54°
2026-05-07 19:43 43.63679 7.39942 36000 ft 526 kts 54°
2026-05-07 19:43 43.67923 7.48174 36001 ft 527 kts 54°
2026-05-07 19:44 43.72156 7.56412 36003 ft 528 kts 54°
2026-05-07 19:44 43.76372 7.64633 36004 ft 527 kts 54°
2026-05-07 19:45 43.80859 7.72615 36009 ft 527 kts 48°
2026-05-07 19:45 43.86016 7.79831 36017 ft 525 kts 39°
2026-05-07 19:46 43.91684 7.86141 36021 ft 523 kts 34°
2026-05-07 19:46 43.97412 7.92215 36020 ft 522 kts 36°
2026-05-07 19:47 44.03051 7.98552 36027 ft 522 kts 37°
2026-05-07 19:47 44.08689 8.04946 36025 ft 522 kts 37°
2026-05-07 19:48 44.14303 8.11313 36022 ft 521 kts 36°
2026-05-07 19:48 44.19912 8.17669 36021 ft 521 kts 36°
2026-05-07 19:49 44.25487 8.24006 36021 ft 520 kts 36°
2026-05-07 19:49 44.31092 8.30388 36009 ft 521 kts 36°
2026-05-07 19:50 44.36722 8.36819 36009 ft 521 kts 36°
2026-05-07 19:50 44.42284 8.43185 36006 ft 520 kts 36°
2026-05-07 19:51 44.47863 8.49591 36004 ft 520 kts 36°
2026-05-07 19:51 44.53442 8.56006 36002 ft 520 kts 36°
2026-05-07 19:52 44.59017 8.62437 36003 ft 520 kts 36°
2026-05-07 19:52 44.64553 8.68840 35998 ft 520 kts 36°
2026-05-07 19:53 44.70044 8.75457 35991 ft 522 kts 41°
2026-05-07 19:53 44.75127 8.82737 35991 ft 523 kts 44°
2026-05-07 19:54 44.80122 8.90174 35994 ft 524 kts 44°
2026-05-07 19:54 44.85106 8.97597 35994 ft 525 kts 44°
2026-05-07 19:55 44.90115 9.05047 36002 ft 526 kts 43°
2026-05-07 19:55 44.95128 9.12518 36002 ft 525 kts 43°
2026-05-07 19:56 45.00107 9.19951 36004 ft 524 kts 43°
2026-05-07 19:56 45.05107 9.27437 36007 ft 525 kts 43°
2026-05-07 19:57 45.10083 9.34911 36005 ft 523 kts 43°
2026-05-07 19:57 45.15042 9.42376 36004 ft 522 kts 43°
2026-05-07 19:58 45.20005 9.49867 36003 ft 522 kts 43°
2026-05-07 19:58 45.24952 9.57355 36002 ft 521 kts 43°
2026-05-07 19:59 45.29846 9.64783 36004 ft 520 kts 44°
2026-05-07 19:59 45.34779 9.72293 36007 ft 519 kts 44°
2026-05-07 20:00 45.39663 9.79748 36009 ft 518 kts 44°
2026-05-07 20:00 45.44559 9.87243 36014 ft 517 kts 44°
2026-05-07 20:01 45.49428 9.94715 36018 ft 517 kts 44°
2026-05-07 20:01 45.54314 10.02233 36014 ft 517 kts 44°
2026-05-07 20:02 45.59175 10.09734 36017 ft 516 kts 44°
2026-05-07 20:02 45.64035 10.17253 36031 ft 515 kts 44°
2026-05-07 20:03 45.68859 10.24734 36035 ft 514 kts 44°
2026-05-07 20:03 45.73678 10.32233 36045 ft 514 kts 44°
2026-05-07 20:04 45.78509 10.39786 36049 ft 514 kts 45°
2026-05-07 20:04 45.82949 10.47800 36058 ft 516 kts 51°
2026-05-07 20:05 45.87060 10.56163 36064 ft 516 kts 52°
2026-05-07 20:05 45.91605 10.64057 36062 ft 511 kts 41°
2026-05-07 20:06 45.97007 10.70536 36063 ft 505 kts 30°
2026-05-07 20:06 46.03050 10.75437 36066 ft 498 kts 20°
2026-05-07 20:07 46.09356 10.79486 36045 ft 497 kts 19°
2026-05-07 20:07 46.15649 10.83483 36051 ft 496 kts 19°
2026-05-07 20:08 46.21942 10.87538 36048 ft 496 kts 19°
2026-05-07 20:08 46.28231 10.91618 36077 ft 496 kts 20°
2026-05-07 20:09 46.34486 10.95696 36072 ft 496 kts 19°
2026-05-07 20:10 46.43898 11.01850 36079 ft 495 kts 19°
2026-05-07 20:10 46.50153 11.05952 36083 ft 495 kts 19°
2026-05-07 20:11 46.56426 11.10076 36087 ft 495 kts 20°
2026-05-07 20:11 46.62671 11.14193 36085 ft 496 kts 20°
2026-05-07 20:12 46.68944 11.18341 36090 ft 496 kts 19°
2026-05-07 20:12 46.75214 11.22494 36104 ft 496 kts 19°
2026-05-07 20:13 46.81459 11.26643 36077 ft 495 kts 20°
2026-05-07 20:13 46.87699 11.30798 36082 ft 494 kts 19°
2026-05-07 20:14 46.93910 11.34942 36077 ft 494 kts 20°
2026-05-07 20:14 47.00188 11.38940 36097 ft 491 kts 17°
2026-05-07 20:15 47.06553 11.42547 36112 ft 491 kts 16°
2026-05-07 20:15 47.09742 11.44336 36327 ft 491 kts 16°
2026-05-07 20:15 47.12899 11.46112 36217 ft 489 kts 16°
2026-05-07 20:16 47.19255 11.49706 36133 ft 488 kts 16°
2026-05-07 20:16 47.25560 11.53286 36106 ft 488 kts 16°
2026-05-07 20:17 47.31870 11.56879 36093 ft 486 kts 16°
2026-05-07 20:17 47.35022 11.58681 35899 ft 483 kts 16°
2026-05-07 20:17 47.38116 11.60451 35456 ft 483 kts 16°
2026-05-07 20:17 47.41249 11.62242 35174 ft 485 kts 16°
2026-05-07 20:18 47.44398 11.64042 35093 ft 487 kts 16°
2026-05-07 20:18 47.50705 11.67661 35086 ft 488 kts 17°
2026-05-07 20:19 47.57033 11.71304 35089 ft 488 kts 17°
2026-05-07 20:19 47.63317 11.75091 35087 ft 490 kts 21°
2026-05-07 20:20 47.69320 11.79935 35082 ft 495 kts 28°
2026-05-07 20:20 47.74897 11.85979 35076 ft 500 kts 37°
2026-05-07 20:21 47.79959 11.92972 35070 ft 501 kts 41°
2026-05-07 20:21 47.84930 12.00260 35066 ft 501 kts 41°
2026-05-07 20:22 47.89870 12.07498 35060 ft 502 kts 41°
2026-05-07 20:22 47.94829 12.14750 35048 ft 500 kts 41°
2026-05-07 20:23 47.99772 12.21994 35053 ft 500 kts 41°
2026-05-07 20:23 48.04713 12.29247 35055 ft 500 kts 41°
2026-05-07 20:24 48.09667 12.36542 35060 ft 500 kts 41°
2026-05-07 20:24 48.14614 12.43847 35071 ft 501 kts 41°
2026-05-07 20:25 48.19542 12.51145 35069 ft 500 kts 42°
2026-05-07 20:25 48.24550 12.58251 35070 ft 497 kts 37°
2026-05-07 20:26 48.29861 12.64894 35088 ft 496 kts 36°
2026-05-07 20:26 48.35159 12.71430 35075 ft 496 kts 37°
2026-05-07 20:27 48.40449 12.78002 35073 ft 497 kts 37°
2026-05-07 20:27 48.45774 12.84651 35076 ft 496 kts 37°
2026-05-07 20:28 48.51078 12.91264 35069 ft 496 kts 36°
2026-05-07 20:28 48.56659 12.97184 35063 ft 486 kts 29°
2026-05-07 20:28 48.59559 12.99771 34667 ft 484 kts 27°
2026-05-07 20:29 48.62449 13.02233 34031 ft 485 kts 26°
2026-05-07 20:29 48.65371 13.04702 33447 ft 477 kts 26°
2026-05-07 20:29 48.68234 13.07139 32875 ft 468 kts 26°
2026-05-07 20:29 48.71002 13.09515 32308 ft 459 kts 27°
2026-05-07 20:30 48.73763 13.11898 31724 ft 451 kts 27°
2026-05-07 20:30 48.76433 13.14208 31324 ft 441 kts 27°
2026-05-07 20:30 48.79066 13.16485 30869 ft 439 kts 27°
2026-05-07 20:30 48.81714 13.18779 30350 ft 438 kts 27°
2026-05-07 20:31 48.84354 13.21069 29810 ft 436 kts 27°
2026-05-07 20:31 48.86968 13.23282 29294 ft 433 kts 25°
2026-05-07 20:31 48.89655 13.25275 28735 ft 428 kts 21°
2026-05-07 20:31 48.92346 13.27039 28203 ft 419 kts 20°
2026-05-07 20:32 48.95008 13.28725 27685 ft 410 kts 20°
2026-05-07 20:32 48.97596 13.30355 27168 ft 403 kts 20°
2026-05-07 20:32 49.00164 13.31977 26644 ft 398 kts 20°
2026-05-07 20:32 49.02724 13.33600 26125 ft 396 kts 20°
2026-05-07 20:33 49.05215 13.35185 25613 ft 392 kts 20°
2026-05-07 20:33 49.07738 13.36795 25097 ft 389 kts 20°
2026-05-07 20:33 49.10194 13.38436 24602 ft 390 kts 24°
2026-05-07 20:33 49.12530 13.40548 24137 ft 391 kts 32°
2026-05-07 20:34 49.14670 13.43123 23675 ft 391 kts 38°
2026-05-07 20:34 49.16698 13.45857 23226 ft 391 kts 39°
2026-05-07 20:34 49.18711 13.48624 22772 ft 389 kts 39°
2026-05-07 20:34 49.20711 13.51375 22323 ft 388 kts 39°
2026-05-07 20:35 49.22716 13.54127 21868 ft 387 kts 39°
2026-05-07 20:35 49.24711 13.56859 21423 ft 386 kts 39°
2026-05-07 20:35 49.26701 13.59583 20976 ft 385 kts 39°
2026-05-07 20:35 49.28669 13.62278 20542 ft 384 kts 39°
2026-05-07 20:36 49.30651 13.64993 20104 ft 382 kts 39°
2026-05-07 20:36 49.32640 13.67718 19656 ft 381 kts 39°
2026-05-07 20:36 49.34587 13.70390 19214 ft 379 kts 39°
2026-05-07 20:36 49.36535 13.73068 18731 ft 370 kts 39°
2026-05-07 20:37 49.38422 13.75665 18283 ft 362 kts 39°
2026-05-07 20:37 49.40264 13.78201 17781 ft 356 kts 39°
2026-05-07 20:37 49.42089 13.80714 17281 ft 351 kts 39°
2026-05-07 20:37 49.43889 13.83196 16778 ft 346 kts 39°
2026-05-07 20:38 49.45665 13.85645 16283 ft 342 kts 39°
2026-05-07 20:38 49.47420 13.88068 15811 ft 344 kts 39°
2026-05-07 20:38 49.49207 13.90537 15288 ft 344 kts 39°
2026-05-07 20:38 49.50985 13.92998 14782 ft 343 kts 39°
2026-05-07 20:39 49.52732 13.95420 14285 ft 343 kts 39°
2026-05-07 20:39 49.54496 13.97866 13754 ft 339 kts 40°
2026-05-07 20:39 49.56212 14.00254 13289 ft 327 kts 40°
2026-05-07 20:39 49.57863 14.02553 12861 ft 316 kts 39°
2026-05-07 20:40 49.59464 14.04783 12432 ft 306 kts 39°
2026-05-07 20:40 49.61006 14.06931 12026 ft 297 kts 39°
2026-05-07 20:40 49.62530 14.09054 11708 ft 294 kts 39°
2026-05-07 20:40 49.64107 14.11083 11365 ft 294 kts 31°
2026-05-07 20:41 49.65902 14.12513 11063 ft 290 kts 17°
2026-05-07 20:41 49.67807 14.13309 10747 ft 283 kts
2026-05-07 20:41 49.69727 14.13905 10447 ft 278 kts
2026-05-07 20:41 49.71602 14.14464 10151 ft 274 kts
2026-05-07 20:42 49.73452 14.15022 9856 ft 272 kts
2026-05-07 20:42 49.75320 14.15597 9547 ft 271 kts
2026-05-07 20:42 49.77145 14.16169 9247 ft 269 kts
2026-05-07 20:42 49.78965 14.16744 8950 ft 268 kts
2026-05-07 20:43 49.80804 14.17328 8648 ft 267 kts
2026-05-07 20:43 49.82603 14.17900 8348 ft 266 kts
2026-05-07 20:43 49.84412 14.18512 8047 ft 264 kts 15°
2026-05-07 20:43 49.86020 14.19813 7799 ft 264 kts 37°
2026-05-07 20:44 49.87229 14.21941 7571 ft 263 kts 58°
2026-05-07 20:44 49.88068 14.24420 7349 ft 260 kts 63°
2026-05-07 20:44 49.88842 14.26916 7129 ft 257 kts 63°
2026-05-07 20:44 49.89617 14.29407 6884 ft 254 kts 62°
2026-05-07 20:45 49.90384 14.31825 6659 ft 252 kts 62°
2026-05-07 20:45 49.91167 14.34267 6442 ft 251 kts 62°
2026-05-07 20:45 49.91909 14.36694 6216 ft 252 kts 70°
2026-05-07 20:45 49.92185 14.39357 5975 ft 252 kts 92°
2026-05-07 20:46 49.91833 14.42013 5786 ft 250 kts 113°
2026-05-07 20:46 49.90963 14.44277 5612 ft 246 kts 127°
2026-05-07 20:46 49.89912 14.46361 5430 ft 244 kts 129°
2026-05-07 20:46 49.88847 14.48418 5254 ft 243 kts 129°
2026-05-07 20:47 49.87799 14.50469 5086 ft 243 kts 128°
2026-05-07 20:47 49.86767 14.52520 4918 ft 243 kts 128°
2026-05-07 20:47 49.85740 14.54584 4747 ft 243 kts 127°
2026-05-07 20:47 49.84700 14.56658 4571 ft 242 kts 128°
2026-05-07 20:48 49.83673 14.58692 4393 ft 241 kts 128°
2026-05-07 20:48 49.82634 14.60742 4216 ft 241 kts 128°
2026-05-07 20:48 49.81607 14.62757 4045 ft 240 kts 128°
2026-05-07 20:48 49.80571 14.64784 3991 ft 240 kts 128°
2026-05-07 20:49 49.79534 14.66813 3987 ft 240 kts 128°
2026-05-07 20:49 49.78566 14.68864 3972 ft 230 kts 115°
2026-05-07 20:49 49.78277 14.71188 3966 ft 216 kts 79°
2026-05-07 20:49 49.78842 14.73181 3969 ft 200 kts 41°
2026-05-07 20:50 49.80030 14.74199 3988 ft 195 kts
2026-05-07 20:50 49.81349 14.73978 4006 ft 193 kts 341°
2026-05-07 20:50 49.82611 14.73272 3998 ft 192 kts 336°
2026-05-07 20:50 49.83843 14.72480 4001 ft 192 kts 335°
2026-05-07 20:51 49.85064 14.71677 4009 ft 192 kts 335°
2026-05-07 20:51 49.86306 14.70853 3994 ft 193 kts 335°
2026-05-07 20:51 49.87513 14.69989 3989 ft 192 kts 330°
2026-05-07 20:51 49.88650 14.68899 3986 ft 192 kts 324°
2026-05-07 20:52 49.89666 14.67561 3987 ft 191 kts 315°
2026-05-07 20:52 49.90561 14.66050 3992 ft 191 kts 311°
2026-05-07 20:52 49.91425 14.64503 3985 ft 185 kts 310°
2026-05-07 20:52 49.92225 14.63002 3983 ft 181 kts 309°
2026-05-07 20:53 49.93012 14.61470 3990 ft 180 kts 308°
2026-05-07 20:53 49.93753 14.59983 3975 ft 167 kts 308°
2026-05-07 20:53 49.94427 14.58606 3979 ft 159 kts 307°
2026-05-07 20:53 49.95098 14.57218 3994 ft 160 kts 307°
2026-05-07 20:54 49.95748 14.55861 3980 ft 152 kts 307°
2026-05-07 20:54 49.96372 14.54553 3991 ft 151 kts 307°
2026-05-07 20:54 49.96999 14.53236 4007 ft 151 kts 307°
2026-05-07 20:54 49.97621 14.51928 4001 ft 151 kts 307°
2026-05-07 20:55 49.98249 14.50608 4002 ft 151 kts 307°
2026-05-07 20:55 49.98879 14.49288 4003 ft 151 kts 307°
2026-05-07 20:55 49.99504 14.47979 4003 ft 151 kts 307°
2026-05-07 20:55 50.00132 14.46667 4003 ft 151 kts 307°
2026-05-07 20:56 50.00758 14.45362 3945 ft 151 kts 308°
2026-05-07 20:56 50.01381 14.44063 3741 ft 148 kts 308°
2026-05-07 20:56 50.01985 14.42806 3544 ft 145 kts 308°
2026-05-07 20:56 50.02591 14.41549 3355 ft 145 kts 308°
2026-05-07 20:57 50.03195 14.40295 3166 ft 145 kts 308°
2026-05-07 20:57 50.03798 14.39043 2975 ft 145 kts 308°
2026-05-07 20:57 50.04403 14.37788 2780 ft 145 kts 308°
2026-05-07 20:57 50.05004 14.36541 2590 ft 145 kts 308°
2026-05-07 20:58 50.05606 14.35292 2393 ft 145 kts 308°
2026-05-07 20:58 50.06215 14.34031 2200 ft 145 kts 308°
2026-05-07 20:58 50.06820 14.32777 2003 ft 145 kts 308°
2026-05-07 20:58 50.07422 14.31532 1803 ft 145 kts 308°
2026-05-07 20:59 50.08036 14.30265 1624 ft 146 kts 308°
2026-05-07 20:59 50.08642 14.29015 1392 ft 142 kts 308°
2026-05-07 20:59 50.09244 14.27775 1242 ft 142 kts 309°
2026-05-07 20:59 50.09750 14.26732 1222 ft 91 kts 306°
2026-05-07 21:00 50.10046 14.26106 1207 ft 56 kts 307°
2026-05-07 21:00 50.10213 14.25771 1197 ft 27 kts 310°
2026-05-07 21:00 50.10313 14.25676 1193 ft 13 kts 339°
2026-05-07 21:00 50.10393 14.25660 1190 ft 9 kts 358°
2026-05-07 21:01 50.10463 14.25680 1187 ft 10 kts 34°
2026-05-07 21:01 50.10492 14.25770 1186 ft 9 kts 77°
2026-05-07 21:01 50.10508 14.25881 1187 ft 10 kts 77°
2026-05-07 21:01 50.10524 14.25991 1188 ft 9 kts 77°
2026-05-07 21:02 50.10538 14.26098 1188 ft 10 kts 81°
2026-05-07 21:02 50.10538 14.26194 1188 ft 6 kts 88°
2026-05-07 21:02 50.10556 14.26235 1188 ft 5 kts 35°
2026-05-07 21:02 50.10585 14.26267 1188 ft 0 kts 35°
2026-05-07 21:03 50.10588 14.26271 1188 ft 0 kts 35°